EA1M Weather Reports


Display with metric or nautical units.
time (UTC)temp
F
wind
direction
speed
MPH
gust
MPH
rain 1hr
in
rain 24hr
in
rain mn
in
humidity
%
barometer
mb
20260904184038 71 20 1.0 3.0 0.00 0.00 0.00 81 1023.0
20260904183102 71 18 2.0 3.0 0.00 0.00 0.00 80 1022.8
20260904182022 72 345 2.0 4.0 0.00 0.00 0.00 79 1022.7
20260904181046 71 312 3.0 4.0 0.00 0.00 0.00 79 1022.7
20260904180110 72 326 3.0 6.0 0.00 0.00 0.00 79 1022.6
20260904175030 73 347 2.0 6.0 0.00 0.00 0.00 77 1022.6
20260904174053 73 76 2.0 3.0 0.00 0.00 0.00 77 1022.5
20260904173137 74 343 2.0 6.0 0.00 0.00 0.00 75 1022.4
20260904172039 73 341 3.0 6.0 0.00 0.00 0.00 77 1022.3
20260904171103 73 340 2.0 6.0 0.00 0.00 0.00 78 1022.2
20260904170022 71 344 2.0 7.0 0.00 0.00 0.00 80 1022.1
20260904165047 71 341 4.0 9.0 0.00 0.00 0.00 80 1022.0
20260904164110 72 334 3.0 6.0 0.00 0.00 0.00 78 1022.2
20260904163029 74 304 3.0 6.0 0.00 0.00 0.00 76 1021.9
20260904162054 73 4 2.0 7.0 0.00 0.00 0.00 76 1021.9
20260904161118 73 348 5.0 9.0 0.00 0.00 0.00 77 1022.1
20260904160038 72 355 3.0 8.0 0.00 0.00 0.00 80 1022.4
20260904155102 71 36 3.0 8.0 0.00 0.00 0.00 80 1022.5
20260904154022 72 348 3.0 6.0 0.00 0.00 0.00 79 1022.7
20260904153046 73 356 3.0 7.0 0.00 0.00 0.00 77 1022.9
20260904152110 73 86 4.0 8.0 0.00 0.00 0.00 77 1023.1
20260904151050 73 330 4.0 9.0 0.00 0.00 0.00 76 1023.1
20260904150054 73 325 4.0 8.0 0.00 0.00 0.00 76 1023.4
20260904145118 73 8 4.0 9.0 0.00 0.00 0.00 77 1023.3
20260904144038 73 354 3.0 8.0 0.00 0.00 0.00 76 1023.6
20260904143122 75 353 4.0 7.0 0.00 0.00 0.00 74 1023.6
20260904142023 74 325 3.0 7.0 0.00 0.00 0.00 75 1023.7
20260904141046 74 336 4.0 10.0 0.00 0.00 0.00 76 1023.7
20260904140130 74 17 4.0 8.0 0.00 0.00 0.00 76 1023.7
20260904135030 73 2 4.0 8.0 0.00 0.00 0.00 77 1024.0
20260904134134 74 327 4.0 8.0 0.00 0.00 0.00 77 1023.8
20260904133118 73 325 5.0 9.0 0.00 0.00 0.00 78 1023.8
20260904132037 74 340 4.0 9.0 0.00 0.00 0.00 77 1023.9
20260904131101 74 2 3.0 7.0 0.00 0.00 0.00 76 1024.0
20260904130022 73 11 3.0 7.0 0.00 0.00 0.00 78 1023.9
20260904125047 73 40 1.0 4.0 0.00 0.00 0.00 80 1023.6
20260904124111 73 347 5.0 9.0 0.00 0.00 0.00 78 1023.4
20260904123031 73 359 4.0 9.0 0.00 0.00 0.00 78 1023.2
20260904122054 74 359 4.0 7.0 0.00 0.00 0.00 77 1023.4
20260904121118 73 27 3.0 6.0 0.00 0.00 0.00 78 1023.5
20260904120038 73 88 1.0 3.0 0.00 0.00 0.00 78 1023.5
20260904115101 72 41 1.0 3.0 0.00 0.00 0.00 81 1023.2
20260904114021 70 345 3.0 4.0 0.00 0.00 0.00 83 1023.1
20260904113046 70 282 3.0 4.0 0.00 0.00 0.00 83 1023.1
20260904112110 69 30 1.0 3.0 0.00 0.00 0.00 87 1023.1
20260904111030 68 356 1.0 3.0 0.00 0.00 0.00 90 1023.1
20260904110054 68 119 3.0 4.0 0.00 0.00 0.00 92 1023.2
20260904105117 68 20 1.0 3.0 0.00 0.00 0.00 93 1023.1
20260904104058 67 36 1.0 3.0 0.00 0.00 0.00 94 1023.0
20260904103102 67 32 1.0 2.0 0.00 0.00 0.00 95 1023.0
20260904102041 66 37 0.0 1.0 0.00 0.00 0.00 95 1022.9
20260904101106 65 90 2.0 3.0 0.00 0.00 0.00 95 1023.0
20260904100109 65 89 0.0 3.0 0.00 0.00 0.00 96 1023.0
20260904095029 64 88 2.0 4.0 0.00 0.00 0.00 96 1023.1
20260904094054 64 96 2.0 3.0 0.00 0.00 0.00 96 1023.1
20260904093117 64 91 1.0 3.0 0.00 0.00 0.00 96 1023.2
20260904092037 64 123 3.0 4.0 0.00 0.00 0.00 96 1023.2
20260904091102 64 79 2.0 4.0 0.00 0.00 0.00 96 1023.3
20260904090022 63 133 2.0 4.0 0.00 0.00 0.00 96 1023.2
20260904085046 63 102 2.0 4.0 0.00 0.00 0.00 96 1023.1
20260904084111 63 82 1.0 3.0 0.00 0.00 0.00 96 1023.2
20260904083051 62 104 3.0 4.0 0.00 0.00 0.00 96 1023.3
20260904082054 62 80 1.0 3.0 0.00 0.00 0.00 96 1023.2
20260904081119 62 77 1.0 2.0 0.00 0.00 0.00 96 1023.3
20260904080038 62 122 2.0 4.0 0.00 0.00 0.00 96 1023.2
20260904075102 63 104 1.0 4.0 0.00 0.00 0.00 96 1023.1
20260904074042 63 80 1.0 2.0 0.00 0.00 0.00 96 1023.0
20260904073106 62 80 1.0 2.0 0.00 0.00 0.00 96 1022.8
20260904072109 62 121 2.0 4.0 0.00 0.00 0.00 96 1022.9
20260904071030 62 98 2.0 3.0 0.00 0.00 0.00 96 1022.6
20260904070054 62 87 1.0 2.0 0.00 0.00 0.00 96 1022.5
20260904065118 62 86 1.0 2.0 0.00 0.00 0.00 96 1022.4
20260904064038 62 104 2.0 3.0 0.00 0.00 0.00 96 1022.2
20260904063123 62 113 2.0 3.0 0.00 0.00 0.00 96 1021.9
20260904062021 62 101 2.0 3.0 0.00 0.00 0.00 96 1021.8
20260904061045 62 123 2.0 3.0 0.00 0.00 0.00 96 1021.7
20260904060109 62 112 2.0 4.0 0.00 0.00 0.00 96 1021.7
20260904055030 62 143 3.0 4.0 0.00 0.00 0.00 95 1021.4
20260904054054 62 141 3.0 4.0 0.00 0.00 0.00 95 1021.3
20260904053118 62 90 2.0 3.0 0.00 0.00 0.00 95 1021.3
20260904052037 62 108 2.0 3.0 0.00 0.00 0.00 95 1021.2
20260904051102 62 95 2.0 3.0 0.00 0.00 0.00 95 1021.3
20260904050021 62 117 2.0 4.0 0.00 0.00 0.00 94 1021.2
20260904045107 62 97 2.0 3.0 0.00 0.00 0.00 94 1021.4
20260904044110 62 91 2.0 3.0 0.00 0.00 0.00 94 1021.3
20260904043029 62 106 2.0 4.0 0.00 0.00 0.00 93 1021.3
20260904042053 62 140 3.0 4.0 0.00 0.00 0.00 93 1021.5
20260904041137 62 97 1.0 3.0 0.00 0.00 0.00 93 1021.4
20260904040038 62 124 2.0 3.0 0.00 0.00 0.00 93 1021.4
20260904035102 62 78 1.0 2.0 0.00 0.00 0.00 93 1021.6
20260904034042 63 97 1.0 3.0 0.00 0.00 0.00 93 1021.6
20260904033046 62 71 0.0 1.0 0.00 0.00 0.00 93 1021.6
20260904032110 62 77 1.0 2.0 0.00 0.00 0.00 93 1021.6
20260904031030 62 103 2.0 3.0 0.00 0.00 0.00 93 1021.6
20260904030054 63 120 2.0 3.0 0.00 0.00 0.00 93 1021.7
20260904025118 65 115 2.0 4.0 0.00 0.00 0.00 94 1021.7
20260904024037 65 80 1.0 2.0 0.00 0.00 0.00 93 1021.5
20260904023102 65 86 2.0 3.0 0.00 0.00 0.00 93 1021.6
20260904022042 65 16 1.0 3.0 0.00 0.00 0.00 93 1021.7
20260904021046 64 38 0.0 2.0 0.00 0.00 0.00 93 1021.8
20260904020109 64 7 2.0 3.0 0.00 0.00 0.00 92 1021.9
20260904015030 64 36 1.0 2.0 0.00 0.00 0.00 92 1022.1
20260904014053 63 32 1.0 2.0 0.00 0.00 0.00 92 1022.2
20260904013020 64 0.0 0.0 0.00 0.00 0.00 91 1022.3
20260904012037 64 0.0 0.0 0.00 0.00 0.00 91 1022.2
20260904011101 64 0.0 0.0 0.00 0.00 0.00 91 1022.3
20260904010021 64 0.0 0.0 0.00 0.00 0.00 90 1022.2
20260904005047 64 69 0.0 1.0 0.00 0.00 0.00 90 1022.4
20260904004110 64 94 2.0 2.0 0.00 0.00 0.00 90 1022.4
20260904003030 64 114 3.0 4.0 0.00 0.00 0.00 90 1022.2
20260904002134 64 94 2.0 6.0 0.00 0.00 0.00 90 1022.2
20260904001117 65 134 3.0 6.0 0.00 0.00 0.00 89 1022.2
20260904000038 65 107 2.0 4.0 0.00 0.00 0.00 89 1022.1
20260903235102 65 87 1.0 3.0 0.00 0.00 0.00 89 1022.3
20260903234022 65 105 2.0 3.0 0.00 0.00 0.00 89 1022.3
20260903233046 66 67 1.0 2.0 0.00 0.00 0.00 89 1022.2
20260903232110 67 43 1.0 1.0 0.00 0.00 0.00 89 1022.2
20260903231030 67 32 0.0 1.0 0.00 0.00 0.00 89 1022.1
20260903230054 68 19 1.0 2.0 0.00 0.00 0.00 88 1022.1
20260903225119 68 25 2.0 3.0 0.00 0.00 0.00 88 1022.2
20260903224037 68 24 1.0 2.0 0.00 0.00 0.00 88 1022.2
20260903223102 68 359 2.0 3.0 0.00 0.00 0.00 88 1022.3
20260903222022 67 38 0.0 1.0 0.00 0.00 0.00 88 1022.3
20260903221046 67 49 0.0 1.0 0.00 0.00 0.00 87 1022.3
20260903220110 68 35 0.0 1.0 0.00 0.00 0.00 87 1022.3
20260903215030 68 38 0.0 1.0 0.00 0.00 0.00 87 1022.3
20260903214053 68 0.0 0.0 0.00 0.00 0.00 86 1022.3
20260903213118 69 35 0.0 1.0 0.00 0.00 0.00 85 1022.3
20260903212037 70 34 0.0 1.0 0.00 0.00 0.00 83 1022.2
20260903211122 70 0.0 0.0 0.00 0.00 0.00 82 1022.3
20260903210022 71 37 0.0 1.0 0.00 0.00 0.00 80 1022.2
20260903205045 71 0.0 0.0 0.00 0.00 0.00 79 1022.0
20260903204109 71 71 1.0 1.0 0.00 0.00 0.00 79 1022.0
20260903203030 71 74 1.0 2.0 0.00 0.00 0.00 79 1021.9
20260903202053 71 69 0.0 1.0 0.00 0.00 0.00 77 1021.9
20260903201158 71 88 1.0 2.0 0.00 0.00 0.00 77 1021.8
20260903200118 71 45 0.0 1.0 0.00 0.00 0.00 76 1021.7
20260903195101 71 0.0 1.0 0.00 0.00 0.00 78 1021.5
20260903194041 71 55 0.0 1.0 0.00 0.00 0.00 80 1021.5
20260903193045 71 32 0.0 2.0 0.00 0.00 0.00 80 1021.4
20260903192110 73 39 2.0 3.0 0.00 0.00 0.00 75 1021.2
20260903191050 74 54 0.0 2.0 0.00 0.00 0.00 70 1021.2
20260903190053 75 46 1.0 3.0 0.00 0.00 0.00 68 1021.3
20260903185118 77 54 0.0 1.0 0.00 0.00 0.00 64 1021.2